Current weather by "City, St" or "zip code"  
 
Advertise Here

Current Conditions: Houston, Houston Hobby Airport, TX

Overcast


72.0 F

Last Updated on Jan 25 2021, 2:53 am CST
Humidity: 87%
Wind Speed: S 16.1 G 23.0 mph
Barometer 29.74 in
Dewpoint: 68.0 F
Visibility: 10.00 mi
Precip: --
Heat Index: NA
Wind Chill: NA
Current conditions at:

Houston, Houston Hobby Airport, TX (KHOU)

Lat: 29.6375 Lon: 95.2825

Local Radar Image active severe weather and emergency alerts image image weather storm and storm spotter reports image weather observation monitoring service image
Local
Radar
Active
Alerts
Storm Reports Obs
Monitoring

Sign-up For Email & Text Message Weather Alert Notification Services


Advertise Here

Observation History for Houston, Houston Hobby Airport, TX


Time Wind
(mph)
Vis
(mi)
Weather Precip (in) Temperature (F) Relative
Humidity
Wind
Chill
(F)
Heat
Index
(F)
Pressure
Air Dwpt altimeter
(in)
sea level
(mb)
Rmks
2:53 am CST S 16.1 G 23.0 10.00 Overcast -- 72.0 68.0 87% NA NA 29.74 1007.6
1:53 am CST S 18.4 G 25.3 10.00 Overcast -- 72.0 68.0 87% NA NA 29.75 1007.9
12:53 am CST S 19.6 G 34.5 10.00 Overcast -- 73.0 68.0 84% NA NA 29.76 1008.2
11:53 pm CST S 16.1 10.00 Overcast -- 73.0 68.0 84% NA NA 29.80 1009.5
10:53 pm CST S 15.0 G 25.3 10.00 Overcast -- 73.0 69.1 87% NA NA 29.79 1009.3
9:53 pm CST S 18.4 G 24.2 10.00 Overcast Trace 73.0 69.1 87% NA NA 29.80 1009.5
8:53 pm CST SE 15.0 G 23.0 10.00 Overcast -- 72.0 68.0 87% NA NA 29.81 1009.9
7:53 pm CST SE 13.8 10.00 Overcast -- 71.0 66.9 87% NA NA 29.82 1010.2
6:53 pm CST S 16.1 10.00 Mostly Cloudy -- 71.0 66.9 87% NA NA 29.84 1010.9
5:53 pm CST S 15.0 10.00 Overcast -- 72.0 66.9 84% NA NA 29.85 1011.4
4:53 pm CST S 11.5 G 24.2 10.00 Overcast -- 74.0 66.0 76% NA NA 29.87 1011.9
3:53 pm CST SE 17.3 10.00 Mostly Cloudy -- 75.0 66.0 74% NA NA 29.87 1012.1
2:53 pm CST S 16.1 G 25.3 10.00 Overcast -- 76.0 66.9 74% NA NA 29.87 1012.0
1:53 pm CST S 15.0 10.00 Mostly Cloudy -- 79.0 66.0 65% NA NA 29.87 1012.1
12:53 pm CST S 15.0 10.00 Mostly Cloudy -- 77.0 66.9 71% NA NA 29.90 1013.1
11:53 am CST S 16.1 10.00 Mostly Cloudy -- 76.0 69.1 79% NA NA 29.94 1014.4
10:53 am CST S 12.7 9.00 Overcast -- 73.0 69.1 87% NA NA 29.95 1014.7
9:53 am CST S 13.8 3.00 Fog/Mist -- 70.0 68.0 93% NA NA 29.96 1014.9
8:53 am CST SE 5.8 1.00 Fog/Mist -- 67.0 64.9 93% NA NA 29.97 1015.2
7:53 am CST E 5.8 0.50 Fog Trace 64.0 62.1 93% NA NA 29.96 1015.1
6:53 am CST E 4.6 1.00 Fog/Mist Trace 63.0 62.1 97% 64 NA 29.96 1015.0
5:53 am CST E 5.8 0.25 Light Rain Fog 00.01 63.0 61.0 93% 63 NA 29.95 1014.7
4:53 am CST E 6.9 0.25 Fog -- 62.0 61.0 96% 62 NA 29.94 1014.4
3:53 am CST E 6.9 0.25 Fog -- 62.0 60.1 93% 62 NA 29.96 1015.0

Regional Weather Observation


Houston Executive Airport, TX (KTME)

Overcast
72.0 F

Houston, Houston Hobby Airport, TX (KHOU)

Overcast
72.0 F

Houston, Sugar Land Municipal / Hull Field Airport, TX (KSGR)

Overcast
74.0 F

La Porte Municipal Airport, TX (KT41)

Overcast
71.0 F

Houston / Ellington, TX (KEFD)

Overcast
70.0 F

Houston Southwest Airport, TX (KAXH)

Overcast
70.0 F